Location: Unspecified
(0.0000°N, 0.0000°E)
Time: 05:48:44
(UTC+00:00)

N. Korean satellite - Pass Details

Date: 13 April 2021
Orbit: 450 x 501 km, 97.2° (Epoch: 16 May)

Event Time Altitude Azimuth Distance (km) Brightness Sun altitude
Rises 04:20:44 0° 36° (NE) 2,514 10.9 -24.6°
Reaches altitude 10° 04:23:16 10° 56° (NE) 1,629 10.1 -24.0°
Maximum altitude 04:25:44 18° 101° (E) 1,200 9.3 -23.4°
Drops below altitude 10° 04:28:11 10° 146° (SE) 1,615 9.5 -22.8°
Sets 04:30:40 0° 165° (SSE) 2,483 10.2 -22.2°
